Simultaneous Nadir Overpasses (SNOs) Predictions

Prediction of SNOs between AQUA and METOP-A Satellite Orbit:

Table of predicted SNOs for the next 14.0 days since TLE Epoch: 7/31/2021
Index Date (AQUA) Time (AQUA) Lat,Lon (AQUA) SZA (AQUA ) Date (METOP-A) Time (METOP-A) Lat,Lon (METOP-A) SZA (METOP-A ) Distance(km) Time Diff (sec)
1 07/31/2021 16:21:31 77.59, -82.24 60.14 07/31/2021 16:20:59 77.61, -82.19 60.16 2.03 32
2 07/31/2021 17:10:57 -77.61, 85.32 119.83 07/31/2021 17:11:40 -77.62, 85.19 119.83 3.26 43
3 08/03/2021 11:55:46 77.62, -15.93 60.89 08/03/2021 11:55:19 77.61, -15.86 60.88 2.63 27
4 08/03/2021 12:45:12 -77.64, 151.65 119.08 08/03/2021 12:46:00 -77.62, 151.54 119.10 3.13 48
5 08/06/2021 07:30:01 77.62, 50.54 61.64 08/06/2021 07:29:40 77.60, 50.47 61.64 2.13 21
6 08/06/2021 08:19:28 -77.67,-142.05 118.29 08/06/2021 08:20:20 -77.67,-141.92 118.32 3.07 52
7 08/09/2021 03:04:16 77.62, 116.98 62.42 08/09/2021 03:04:00 77.64, 116.98 62.45 2.89 16
8 08/09/2021 03:53:43 -77.67, -75.59 117.51 08/09/2021 03:54:41 -77.67, -75.59 117.53 0.12 58
9 08/11/2021 21:48:56 -77.31, 17.04 117.15 08/11/2021 21:47:49 -77.25, 14.30 116.98 67.30 67
10 08/11/2021 22:38:30 77.62,-176.62 63.25 08/11/2021 22:38:20 77.64,-176.70 63.27 2.54 10



Historial Predications of SNOs between AQUA and METOP-A
